CSC126 ZYTL-ZSNB

Flight info

Callsign CSC126
Flight time N/A
Altitude 40100
Route KAR19D KARPI W5 HCH/K0906S1310 W5 TAO W174 XDX/K0889S1250 B221 PINOT/K0896S1310 B221 ELAGO V72 ISPUR ISP81A
Aircraft A359/H-SDE2E3GHIJ3J4J5LM1ORWXY/LB1D1

Departure

Time 2026-04-27 13:43
Airport Dalian Zhoushuizi International Airport (ZYTL)

Arrival

Time N/A
Airport Ningbo Lishe International Airport (ZSNB)
Time Latitude Longitude Altitude Speed Heading
2026-04-27 13:27 38.96272 121.53400 156 ft 0 kts 182°
2026-04-27 13:34 38.96279 121.53400 156 ft 4 kts 182°
2026-04-27 13:34 38.96306 121.53402 156 ft 4 kts 182°
2026-04-27 13:34 38.96329 121.53403 156 ft 4 kts 172°
2026-04-27 13:35 38.96352 121.53391 156 ft 4 kts 126°
2026-04-27 13:35 38.96360 121.53361 156 ft 4 kts 91°
2026-04-27 13:35 38.96360 121.53330 156 ft 1 kts 96°
2026-04-27 13:38 38.96359 121.53339 156 ft 5 kts 96°
2026-04-27 13:38 38.96386 121.53408 156 ft 12 kts 23°
2026-04-27 13:38 38.96424 121.53466 156 ft 8 kts 91°
2026-04-27 13:38 38.96416 121.53572 156 ft 16 kts 96°
2026-04-27 13:39 38.96402 121.53753 156 ft 24 kts 95°
2026-04-27 13:39 38.96384 121.53987 156 ft 28 kts 95°
2026-04-27 13:39 38.96364 121.54248 156 ft 30 kts 95°
2026-04-27 13:39 38.96342 121.54527 156 ft 32 kts 96°
2026-04-27 13:40 38.96329 121.54696 156 ft 12 kts 96°
2026-04-27 13:40 38.96320 121.54817 156 ft 15 kts 95°
2026-04-27 13:40 38.96300 121.54965 156 ft 18 kts 110°
2026-04-27 13:40 38.96274 121.55137 156 ft 21 kts 96°
2026-04-27 13:41 38.96258 121.55337 156 ft 24 kts 95°
2026-04-27 13:41 38.96242 121.55536 156 ft 20 kts 96°
2026-04-27 13:41 38.96234 121.55659 156 ft 4 kts 91°
2026-04-27 13:41 38.96261 121.55711 156 ft 10 kts 33°
2026-04-27 13:42 38.96351 121.55729 156 ft 16 kts
2026-04-27 13:42 38.96427 121.55682 156 ft 10 kts 283°
2026-04-27 13:42 38.96434 121.55597 156 ft 10 kts 276°
2026-04-27 13:42 38.96456 121.55311 156 ft 68 kts 276°
2026-04-27 13:43 38.96529 121.54376 156 ft 140 kts 275°
2026-04-27 13:43 38.96660 121.52910 418 ft 178 kts 279°
2026-04-27 13:43 38.96805 121.51304 1255 ft 184 kts 284°
2026-04-27 13:43 38.96946 121.49644 2096 ft 195 kts 286°
2026-04-27 13:44 38.97100 121.47905 2847 ft 199 kts 285°
2026-04-27 13:44 38.97233 121.46182 3825 ft 194 kts 284°
2026-04-27 13:44 38.97375 121.44342 4181 ft 222 kts 283°
2026-04-27 13:44 38.97542 121.42273 4747 ft 241 kts 282°
2026-04-27 13:45 38.97734 121.40124 5699 ft 239 kts 288°
2026-04-27 13:45 38.98368 121.38239 6795 ft 224 kts 313°
2026-04-27 13:45 38.99540 121.36992 7842 ft 219 kts 335°
2026-04-27 13:45 39.01025 121.36541 8785 ft 225 kts 356°
2026-04-27 13:46 39.02624 121.36665 9697 ft 236 kts
2026-04-27 13:46 39.04249 121.37234 10542 ft 251 kts 19°
2026-04-27 13:46 39.05667 121.38647 11416 ft 271 kts 44°
2026-04-27 13:46 39.06533 121.40925 11993 ft 304 kts 74°
2026-04-27 13:47 39.06549 121.43732 12697 ft 322 kts 93°
2026-04-27 13:47 39.06280 121.46635 13558 ft 330 kts 94°
2026-04-27 13:47 39.06003 121.49604 14344 ft 338 kts 94°
2026-04-27 13:47 39.05696 121.52637 15073 ft 347 kts 99°
2026-04-27 13:48 39.04819 121.55552 15760 ft 354 kts 126°
2026-04-27 13:48 39.03074 121.57723 16518 ft 349 kts 155°
2026-04-27 13:48 39.00843 121.58711 17337 ft 334 kts 182°
2026-04-27 13:48 38.98607 121.58468 18201 ft 315 kts 206°
2026-04-27 13:49 38.96638 121.57380 18994 ft 304 kts 219°
2026-04-27 13:49 38.94844 121.55937 19597 ft 309 kts 224°
2026-04-27 13:49 38.93029 121.54338 19966 ft 324 kts 224°
2026-04-27 13:49 38.91118 121.52656 20341 ft 341 kts 224°
2026-04-27 13:50 38.89105 121.50908 20693 ft 357 kts 224°
2026-04-27 13:50 38.87003 121.49104 21189 ft 368 kts 223°
2026-04-27 13:50 38.84856 121.47290 21951 ft 372 kts 224°
2026-04-27 13:50 38.82687 121.45459 22780 ft 375 kts 224°
2026-04-27 13:51 38.80501 121.43614 23620 ft 377 kts 225°
2026-04-27 13:51 38.78303 121.41758 24297 ft 379 kts 225°
2026-04-27 13:51 38.76091 121.39889 24978 ft 382 kts 225°
2026-04-27 13:51 38.73895 121.38035 25635 ft 384 kts 225°
2026-04-27 13:52 38.71657 121.36147 26303 ft 386 kts 226°
2026-04-27 13:52 38.69409 121.34252 26961 ft 388 kts 226°
2026-04-27 13:52 38.67142 121.32342 27617 ft 391 kts 226°
2026-04-27 13:52 38.64865 121.30429 28264 ft 393 kts 226°
2026-04-27 13:53 38.60276 121.26547 29516 ft 398 kts 226°
2026-04-27 13:53 38.57958 121.24589 30061 ft 400 kts 226°
2026-04-27 13:53 38.55701 121.22525 30539 ft 395 kts 231°
2026-04-27 13:54 38.53704 121.20174 31044 ft 385 kts 238°
2026-04-27 13:54 38.52009 121.17574 31560 ft 379 kts 242°
2026-04-27 13:54 38.50428 121.14884 32058 ft 379 kts 243°
2026-04-27 13:54 38.48855 121.12178 32520 ft 380 kts 243°
2026-04-27 13:55 38.47273 121.09465 32962 ft 381 kts 243°
2026-04-27 13:55 38.45684 121.06751 33383 ft 382 kts 243°
2026-04-27 13:55 38.44093 121.04041 33891 ft 380 kts 243°
2026-04-27 13:55 38.42522 121.01379 34590 ft 373 kts 243°
2026-04-27 13:56 38.40963 120.98729 34898 ft 375 kts 243°
2026-04-27 13:56 38.39391 120.96049 35097 ft 380 kts 243°
2026-04-27 13:56 38.37801 120.93349 35390 ft 382 kts 243°
2026-04-27 13:56 38.36221 120.90671 35676 ft 383 kts 243°
2026-04-27 13:57 38.34617 120.87955 35947 ft 385 kts 243°
2026-04-27 13:57 38.32998 120.85217 36245 ft 387 kts 243°
2026-04-27 13:57 38.31375 120.82474 36504 ft 389 kts 242°
2026-04-27 13:57 38.29743 120.79720 36785 ft 389 kts 243°
2026-04-27 13:58 38.28108 120.76976 37131 ft 390 kts 242°
2026-04-27 13:58 38.26330 120.74327 37391 ft 399 kts 237°
2026-04-27 13:58 38.24253 120.71912 37647 ft 411 kts 230°
2026-04-27 13:58 38.21859 120.69813 37915 ft 425 kts 223°
2026-04-27 13:59 38.19227 120.68009 38182 ft 432 kts 220°
2026-04-27 13:59 38.16526 120.66300 38458 ft 435 kts 219°
2026-04-27 13:59 38.13788 120.64626 38634 ft 437 kts 219°
2026-04-27 13:59 38.11039 120.62960 38888 ft 438 kts 219°
2026-04-27 14:00 38.08288 120.61291 39099 ft 438 kts 219°
2026-04-27 14:00 38.05536 120.59624 39286 ft 441 kts 218°
2026-04-27 14:00 38.02633 120.58189 39473 ft 454 kts 211°
2026-04-27 14:00 37.99513 120.57219 39653 ft 471 kts 202°
2026-04-27 14:01 37.96220 120.56727 39805 ft 480 kts 198°
2026-04-27 14:01 37.92868 120.56407 39997 ft 484 kts 197°
2026-04-27 14:01 37.89505 120.56166 40151 ft 486 kts 196°
2026-04-27 14:02 37.82772 120.55744 40201 ft 486 kts 195°
2026-04-27 14:02 37.76022 120.55290 40169 ft 485 kts 197°
2026-04-27 14:03 37.69276 120.54793 40197 ft 486 kts 197°
2026-04-27 14:03 37.62541 120.54242 40197 ft 482 kts 199°
2026-04-27 14:04 37.55922 120.53251 40176 ft 477 kts 201°
2026-04-27 14:04 37.49334 120.52142 40193 ft 478 kts 201°
2026-04-27 14:05 37.42722 120.51095 40194 ft 479 kts 200°
2026-04-27 14:05 37.36096 120.50098 40175 ft 479 kts 200°
2026-04-27 14:06 37.29464 120.49116 40196 ft 480 kts 200°
2026-04-27 14:06 37.22831 120.48135 40186 ft 480 kts 200°
2026-04-27 14:07 37.16238 120.47159 40155 ft 480 kts 200°
2026-04-27 14:07 37.09558 120.46170 40184 ft 480 kts 200°
2026-04-27 14:08 37.02918 120.45189 40181 ft 480 kts 200°
2026-04-27 14:08 36.96326 120.44217 40178 ft 480 kts 200°
2026-04-27 14:09 36.89683 120.43239 40176 ft 480 kts 200°
2026-04-27 14:09 36.83046 120.42263 40175 ft 480 kts 200°
2026-04-27 14:10 36.76397 120.41288 40145 ft 480 kts 200°
2026-04-27 14:10 36.69750 120.40313 40175 ft 481 kts 200°
2026-04-27 14:11 36.63083 120.39338 40172 ft 482 kts 200°
2026-04-27 14:11 36.56454 120.38371 40138 ft 482 kts 200°
2026-04-27 14:12 36.49715 120.37487 40184 ft 489 kts 197°
2026-04-27 14:12 36.42894 120.37264 40178 ft 495 kts 193°
2026-04-27 14:13 36.36002 120.37187 40122 ft 495 kts 194°
2026-04-27 14:13 36.29176 120.36881 40169 ft 482 kts 200°
2026-04-27 14:14 36.22655 120.35474 40169 ft 472 kts 204°
2026-04-27 14:14 36.16242 120.33812 40169 ft 471 kts 205°
2026-04-27 14:15 36.10911 120.32398 40161 ft 470 kts 205°
2026-04-27 14:15 36.04510 120.30731 40174 ft 471 kts 204°
2026-04-27 14:15 36.01218 120.30170 40165 ft 484 kts 196°
2026-04-27 14:16 35.97794 120.30180 40165 ft 500 kts 187°
2026-04-27 14:16 35.94304 120.30901 40143 ft 518 kts 176°
2026-04-27 14:16 35.90834 120.32287 40166 ft 528 kts 170°
2026-04-27 14:17 35.83960 120.35623 40168 ft 533 kts 167°
2026-04-27 14:17 35.77099 120.39119 40167 ft 533 kts 168°
2026-04-27 14:18 35.70286 120.42524 40167 ft 532 kts 168°
2026-04-27 14:18 35.63362 120.45919 40167 ft 533 kts 168°
2026-04-27 14:19 35.56508 120.49259 40163 ft 533 kts 168°
2026-04-27 14:19 35.49607 120.52617 40164 ft 534 kts 168°
2026-04-27 14:20 35.42708 120.55977 40151 ft 534 kts 168°
2026-04-27 14:20 35.35795 120.59319 40161 ft 534 kts 168°
2026-04-27 14:21 35.28891 120.62668 40156 ft 534 kts 167°
2026-04-27 14:21 35.21990 120.66018 40150 ft 534 kts 167°
2026-04-27 14:22 35.15086 120.69367 40145 ft 534 kts 167°
2026-04-27 14:22 35.08178 120.72741 40148 ft 535 kts 167°
2026-04-27 14:23 35.01301 120.76105 40149 ft 535 kts 167°
2026-04-27 14:23 34.94383 120.79483 40148 ft 535 kts 167°
2026-04-27 14:24 34.87457 120.82854 40138 ft 537 kts 167°
2026-04-27 14:24 34.80521 120.86223 40150 ft 537 kts 167°
2026-04-27 14:25 34.73572 120.89595 40151 ft 537 kts 167°
2026-04-27 14:25 34.66622 120.92961 40148 ft 538 kts 167°
2026-04-27 14:26 34.59669 120.96322 40128 ft 537 kts 167°
2026-04-27 14:26 34.52728 120.99672 40136 ft 536 kts 167°
2026-04-27 14:27 34.45800 121.03009 40134 ft 535 kts 167°
2026-04-27 14:27 34.38876 121.06335 40125 ft 536 kts 166°
2026-04-27 14:28 34.31941 121.09663 40135 ft 536 kts 166°
2026-04-27 14:28 34.25010 121.12983 40128 ft 536 kts 166°
2026-04-27 14:29 34.18084 121.16294 40133 ft 536 kts 166°
2026-04-27 14:29 34.11152 121.19603 40120 ft 535 kts 166°
2026-04-27 14:30 34.04234 121.22900 40120 ft 534 kts 166°
2026-04-27 14:30 33.97311 121.26193 40117 ft 534 kts 166°
2026-04-27 14:31 33.90414 121.29468 40088 ft 533 kts 166°
2026-04-27 14:31 33.83583 121.32705 40109 ft 532 kts 166°
2026-04-27 14:32 33.76663 121.35979 40100 ft 532 kts 166°
2026-04-27 14:32 33.69767 121.39236 40103 ft 532 kts 166°
2026-04-27 14:33 33.62882 121.42544 40083 ft 534 kts 164°
2026-04-27 14:33 33.56063 121.46096 40096 ft 534 kts 163°
2026-04-27 14:34 33.49254 121.49681 40094 ft 534 kts 163°
2026-04-27 14:34 33.42440 121.53222 40086 ft 534 kts 164°
2026-04-27 14:35 33.35630 121.56730 40077 ft 532 kts 164°
2026-04-27 14:35 33.28853 121.60209 40085 ft 530 kts 164°
2026-04-27 14:36 33.22064 121.63652 40080 ft 528 kts 165°
2026-04-27 14:36 33.15221 121.66831 40077 ft 527 kts 167°
2026-04-27 14:37 33.08419 121.69921 40078 ft 527 kts 166°
2026-04-27 14:37 33.01594 121.73057 40074 ft 526 kts 166°
2026-04-27 14:38 32.94778 121.76211 40062 ft 526 kts 166°
2026-04-27 14:38 32.87952 121.79372 40078 ft 526 kts 166°
2026-04-27 14:39 32.81136 121.82523 40064 ft 524 kts 166°
2026-04-27 14:39 32.74357 121.85652 40070 ft 522 kts 166°
2026-04-27 14:40 32.67583 121.88770 40073 ft 522 kts 166°
2026-04-27 14:40 32.60805 121.91884 40068 ft 522 kts 166°
2026-04-27 14:41 32.54026 121.94995 40063 ft 522 kts 166°
2026-04-27 14:41 32.47264 121.98093 40070 ft 521 kts 166°
2026-04-27 14:42 32.40490 122.01192 40067 ft 521 kts 166°
2026-04-27 14:42 32.33721 122.04283 40068 ft 521 kts 166°
2026-04-27 14:43 32.27002 122.07347 40071 ft 521 kts 165°
2026-04-27 14:43 32.20260 122.10419 40068 ft 517 kts 165°
2026-04-27 14:44 32.13552 122.13468 40068 ft 516 kts 165°
2026-04-27 14:44 32.06859 122.16504 40070 ft 516 kts 165°
2026-04-27 14:45 32.00158 122.19539 40070 ft 516 kts 165°
2026-04-27 14:45 31.93461 122.22568 40069 ft 516 kts 165°
2026-04-27 14:46 31.86757 122.25596 40068 ft 516 kts 165°
2026-04-27 14:46 31.80061 122.28645 40051 ft 517 kts 164°
2026-04-27 14:47 31.73446 122.32017 40066 ft 518 kts 163°
2026-04-27 14:47 31.66799 122.35190 40069 ft 515 kts 165°
2026-04-27 14:48 31.60120 122.38210 40067 ft 513 kts 165°
2026-04-27 14:48 31.50072 122.42451 40059 ft 506 kts 173°
2026-04-27 14:49 31.43226 122.43164 40066 ft 486 kts 192°
2026-04-27 14:49 31.36833 122.41441 40065 ft 470 kts 206°
2026-04-27 14:50 31.30720 122.38774 39753 ft 469 kts 208°
2026-04-27 14:50 31.27684 122.37382 39257 ft 468 kts 208°
2026-04-27 14:50 31.24647 122.35989 38792 ft 469 kts 208°
2026-04-27 14:51 31.21606 122.34605 38280 ft 470 kts 208°
2026-04-27 14:51 31.19044 122.33450 37823 ft 471 kts 208°
2026-04-27 14:51 31.16007 122.32090 37288 ft 472 kts 208°
2026-04-27 14:51 31.13971 122.31184 36950 ft 473 kts 207°
2026-04-27 14:52 31.09842 122.29353 36273 ft 474 kts 207°
2026-04-27 14:52 31.06765 122.27992 35745 ft 474 kts 207°
2026-04-27 14:52 31.03670 122.26624 35264 ft 475 kts 207°
2026-04-27 14:52 31.00586 122.25262 34781 ft 475 kts 207°
2026-04-27 14:53 30.97474 122.23945 34322 ft 478 kts 205°
2026-04-27 14:53 30.94280 122.22813 33840 ft 481 kts 202°
2026-04-27 14:53 30.91038 122.21781 33318 ft 483 kts 201°
2026-04-27 14:53 30.87783 122.20777 32802 ft 485 kts 201°
2026-04-27 14:54 30.84516 122.19760 32270 ft 486 kts 201°
2026-04-27 14:54 30.81258 122.18714 31784 ft 487 kts 202°
2026-04-27 14:54 30.78077 122.17402 31292 ft 485 kts 206°
2026-04-27 14:54 30.74928 122.15999 30823 ft 486 kts 207°
2026-04-27 14:55 30.71770 122.14575 30358 ft 487 kts 207°
2026-04-27 14:55 30.68644 122.13161 29862 ft 489 kts 207°
2026-04-27 14:55 30.65441 122.11709 29290 ft 488 kts 207°
2026-04-27 14:55 30.62323 122.10296 28768 ft 486 kts 206°
2026-04-27 14:56 30.59174 122.08870 28248 ft 483 kts 206°
2026-04-27 14:56 30.56058 122.07459 27727 ft 479 kts 206°
2026-04-27 14:56 30.52962 122.06058 27231 ft 475 kts 206°
2026-04-27 14:56 30.49895 122.04670 26743 ft 471 kts 206°
2026-04-27 14:57 30.46854 122.03294 26266 ft 467 kts 206°
2026-04-27 14:57 30.43843 122.01933 25769 ft 463 kts 206°
2026-04-27 14:57 30.40857 122.00583 25303 ft 460 kts 205°
2026-04-27 14:57 30.37881 121.99239 24841 ft 457 kts 205°
2026-04-27 14:58 30.34931 121.97907 24381 ft 454 kts 205°
2026-04-27 14:58 30.31993 121.96582 23942 ft 451 kts 205°
2026-04-27 14:58 30.29079 121.95269 23488 ft 447 kts 205°
2026-04-27 14:58 30.26192 121.93964 22956 ft 444 kts 205°
2026-04-27 14:59 30.23414 121.92465 22439 ft 437 kts 211°
2026-04-27 14:59 30.20746 121.90806 21913 ft 434 kts 212°
2026-04-27 14:59 30.18109 121.89138 21381 ft 431 kts 212°
2026-04-27 14:59 30.15484 121.87481 20786 ft 427 kts 212°
2026-04-27 15:00 30.12884 121.85843 20176 ft 423 kts 212°
2026-04-27 15:00 30.10315 121.84228 19583 ft 418 kts 212°
2026-04-27 15:00 30.07772 121.82631 19012 ft 414 kts 212°
2026-04-27 15:00 30.05259 121.81054 18453 ft 410 kts 212°
2026-04-27 15:01 30.02797 121.79511 17848 ft 406 kts 212°
2026-04-27 15:01 30.00329 121.77964 17188 ft 402 kts 211°
2026-04-27 15:01 29.97880 121.76430 16546 ft 399 kts 211°
2026-04-27 15:01 29.95474 121.74905 15969 ft 391 kts 213°
2026-04-27 15:02 29.93324 121.73055 15302 ft 381 kts 227°
2026-04-27 15:02 29.91757 121.70639 14613 ft 374 kts 243°
2026-04-27 15:02 29.90900 121.67848 13940 ft 369 kts 259°
2026-04-27 15:02 29.90658 121.64922 13214 ft 365 kts 266°
2026-04-27 15:03 29.90579 121.62017 12526 ft 361 kts 268°
2026-04-27 15:03 29.90505 121.59143 11855 ft 356 kts 267°
2026-04-27 15:03 29.90452 121.57266 11470 ft 353 kts 267°
2026-04-27 15:03 29.90343 121.53611 11266 ft 329 kts 267°
2026-04-27 15:04 29.90289 121.51899 11186 ft 318 kts 267°
2026-04-27 15:04 29.90214 121.49425 11058 ft 302 kts 267°
2026-04-27 15:04 29.90136 121.47062 10929 ft 288 kts 266°
2026-04-27 15:04 29.90060 121.44811 10801 ft 275 kts 266°
2026-04-27 15:05 29.89987 121.42657 10671 ft 264 kts 266°
2026-04-27 15:05 29.89915 121.40553 10559 ft 263 kts 266°
2026-04-27 15:05 29.89843 121.38447 10405 ft 263 kts 266°
2026-04-27 15:05 29.89770 121.36345 10131 ft 263 kts 266°
2026-04-27 15:06 29.89698 121.34229 9798 ft 269 kts 266°
2026-04-27 15:06 29.89623 121.32013 9604 ft 282 kts 267°
2026-04-27 15:06 29.89545 121.29758 9283 ft 281 kts 267°
2026-04-27 15:06 29.89465 121.27496 8743 ft 283 kts 267°
2026-04-27 15:07 29.89387 121.25243 8316 ft 280 kts 267°
2026-04-27 15:07 29.89308 121.23007 7948 ft 280 kts 267°
2026-04-27 15:07 29.89228 121.20767 7575 ft 279 kts 267°
2026-04-27 15:07 29.89151 121.18588 7441 ft 266 kts 267°
2026-04-27 15:08 29.89208 121.16507 7296 ft 254 kts 280°
2026-04-27 15:08 29.89855 121.14672 7175 ft 243 kts 300°
2026-04-27 15:08 29.90748 121.13058 7033 ft 235 kts 303°
2026-04-27 15:08 29.91653 121.11494 6792 ft 234 kts 303°
2026-04-27 15:09 29.92692 121.10068 6526 ft 234 kts 320°
2026-04-27 15:09 29.94162 121.09314 6256 ft 234 kts 353°
2026-04-27 15:09 29.95742 121.09597 5988 ft 233 kts 24°
2026-04-27 15:09 29.97141 121.10532 5727 ft 233 kts 33°
2026-04-27 15:10 29.98485 121.11575 5449 ft 232 kts 34°
2026-04-27 15:10 29.99259 121.12330 5249 ft 231 kts 46°
2026-04-27 15:10 29.99953 121.13657 5072 ft 230 kts 72°
2026-04-27 15:10 30.00008 121.15474 4844 ft 229 kts 104°
2026-04-27 15:11 29.99323 121.17125 4630 ft 230 kts 122°
2026-04-27 15:11 29.98419 121.18651 4389 ft 230 kts 125°
2026-04-27 15:11 29.97507 121.20156 4168 ft 229 kts 123°
2026-04-27 15:11 29.96624 121.21686 3930 ft 228 kts 123°
2026-04-27 15:12 29.95759 121.23208 3715 ft 227 kts 122°
2026-04-27 15:12 29.94898 121.24727 3495 ft 226 kts 123°
2026-04-27 15:12 29.94037 121.26247 3281 ft 225 kts 123°
2026-04-27 15:12 29.93196 121.27729 3156 ft 215 kts 123°
2026-04-27 15:13 29.92397 121.29135 3081 ft 203 kts 123°
2026-04-27 15:13 29.91644 121.30459 3008 ft 191 kts 123°
2026-04-27 15:13 29.90930 121.31713 2827 ft 185 kts 124°
2026-04-27 15:13 29.90236 121.32934 2565 ft 180 kts 124°
2026-04-27 15:14 29.89649 121.33968 2350 ft 177 kts 125°
2026-04-27 15:16 29.89046 121.35026 2129 ft 168 kts 124°